sat.trackr.live / text

‹ back to catalog

STARLINK-34599

NORAD 64919 · 2025-157R

PAYLOAD ACTIVE UNKNOWN

§ Identity

Operator
Country
US
Launch date
2025-07-26
Launch site
AFETR
Launch vehicle
Mass (kg)
RCS (m²)

Purposes: comms

External: N2YO · Heavens-Above · Gunter

§ Orbital elements

Epoch: 2026-05-24T23:17:05.442432Z

Period
94.11 min
Inclination
53.1613°
Eccentricity
0.0001209
Mean motion
15.30201669 rev/d
Perigee alt
474.4 km
Apogee alt
476.0 km
Semi-major
6,853.3 km
B*
3.2248e-4
RAAN
351.2702°
Arg perigee
93.2093°
Mean anomaly
266.9046°
Rev number
4,780

§ Raw data

STARLINK-345991 64919U 25157R   26144.97020188  .00009204  00000+0  32248-3 0  99972 64919  53.1613 351.2702 0001209  93.2093 266.9046 15.30201669 47803

JSON: /api/v1/satellites/64919 · /tle

For live sub-satellite position, see the globe view (requires WebGL).

§ Visibility from observer

Set your observer location to see the next 7 days of passes ≥ 10°. The values pass through the URL so the page stays shareable.

No JS? Fill the form by hand. The geolocation button needs JavaScript.